{"data":{"norad_id":59248,"epoch":"2026-09-20T08:10:43.434336Z","epoch_age_seconds":172562,"freshness":"FRESH","line1":"1 59248U 24049T   26263.34078049  .00000263  00000+0  19085-4 0  9998","line2":"2 59248  43.0034 124.4030 0001226 267.6075  92.4636 15.27577750142162","mean_motion":15.2757775,"eccentricity":0.0001226,"inclination_deg":43.0034,"raan_deg":124.403,"arg_perigee_deg":267.6075,"mean_anomaly_deg":92.4636,"bstar":1.9085e-5,"rev_number":14216,"period_min":94.266887561042,"perigee_km":482.21465111599,"apogee_km":483.89701559873,"semimajor_km":6861.1928333574,"source":"CELESTRAK","updated_at":"2026-09-21T09:00:34.078233Z"}}